Weather History for Cape Girardeau, MO

Change the Weather History Date:

Friday, September 6, 2013

  Actual Average Record
Temperature  
Mean Temperature 73 °F 73 °F  
Max Temperature 87 °F 85 °F 100 °F (1960)
Min Temperature 58 °F 60 °F 46 °F (1988)
Degree Days  
Heating Degree Days 0 0  
Month to date heating degree days 0 0  
Since 1 July heating degree days 1 1  
Cooling Degree Days 8 8  
Month to date cooling degree days 47 52  
Year to date cooling degree days 1228 1312  
Growing Degree Days 22 (Base 50)    
Moisture  
Dew Point 63 °F    
Average Humidity 72    
Maximum Humidity 100    
Minimum Humidity 43    
Precipitation  
Precipitation 0.00 in 0.11 in 1.72 in (2007)
Month to date precipitation T 0.66  
Year to date precipitation 28.23 31.71  
Sea Level Pressure  
Sea Level Pressure 30.13 in    
Wind  
Wind Speed 2 mph (SE)    
Max Wind Speed 9 mph    
Max Gust Speed 13 mph    
Visibility 5 miles    
Events Fog    
T = Trace of Precipitation, MM = Missing Value Source: NWS Daily Summary

Daily Weather History Graph

Daily Weather History Graph

Search for Another Location

Airport:

Trip Planner

Search our weather history database for the weather conditions in past years. The results will help you decide how hot, cold, wet, or windy it might be!

Date:

Astronomy

Sep. 06, 2013 Rise Set
Actual Time 6:33 AM CDT 7:19 PM CDT
Civil Twilight 6:06 AM CDT 7:45 PM CDT
Nautical Twilight 5:35 AM CDT 8:16 PM CDT
Astronomical Twilight 5:03 AM CDT 8:48 PM CDT
Moon 7:42 AM CDT (9/6) 7:46 PM CDT (9/6)
Length of Visible Light 13h 38m
Length of Day
12h 46m
New Moon, 2% of the Moon is Illuminated
Sep 6
New Moon
Sep 12
First Quarter
Sep 19
Full
Sep 26
Last Quarter
Oct 4
New

Hourly Weather History & Observations

Time (CDT) Temp. Heat Index Dew Point Humidity Pressure Visibility Wind Dir Wind Speed Gust Speed Precip Events Conditions
12:46 AM 62.6 °F - 60.8 °F 94% 30.17 in 2.0 mi Calm Calm - N/A   Clear
12:53 AM 62.1 °F - 61.0 °F 96% 30.16 in 2.0 mi Calm Calm - N/A   Clear
1:03 AM 62.6 °F - 60.8 °F 94% 30.17 in 5.0 mi Calm Calm - N/A   Clear
1:53 AM 63.0 °F - 61.0 °F 93% 30.16 in 4.0 mi Calm Calm - N/A   Clear
2:53 AM 64.9 °F - 62.1 °F 90% 30.15 in 7.0 mi Calm Calm - N/A   Clear
3:40 AM 64.4 °F - 62.6 °F 94% 30.15 in 2.0 mi Calm Calm - N/A   Clear
3:53 AM 64.0 °F - 62.1 °F 93% 30.14 in 5.0 mi Calm Calm - N/A   Clear
4:30 AM 62.6 °F - 62.6 °F 100% 30.14 in 1.8 mi Calm Calm - N/A   Clear
4:41 AM 62.6 °F - 60.8 °F 94% 30.14 in 2.5 mi Calm Calm - N/A   Clear
4:53 AM 63.0 °F - 61.0 °F 93% 30.14 in 2.5 mi Calm Calm - N/A   Clear
5:18 AM 62.6 °F - 60.8 °F 94% 30.14 in 1.2 mi Calm Calm - N/A   Clear
5:25 AM 62.6 °F - 60.8 °F 94% 30.15 in 3.0 mi Calm Calm - N/A   Clear
5:53 AM 62.1 °F - 61.0 °F 96% 30.14 in 2.0 mi Calm Calm - N/A   Clear
6:00 AM 62.6 °F - 60.8 °F 94% 30.15 in 0.8 mi Calm Calm - N/A   Clear
6:09 AM 60.8 °F - 60.8 °F 100% 30.15 in 1.8 mi Calm Calm - N/A   Clear
6:19 AM 62.6 °F - 60.8 °F 94% 30.15 in 2.5 mi Calm Calm - N/A   Clear
6:25 AM 60.8 °F - 60.8 °F 100% 30.15 in 0.8 mi Calm Calm - N/A   Clear
6:35 AM 59.0 °F - 59.0 °F 100% 30.15 in 0.2 mi Calm Calm - N/A Fog Fog
6:51 AM 59.0 °F - 59.0 °F 100% 30.16 in 0.2 mi West 3.5 mph - N/A Fog Fog
6:53 AM 57.9 °F - 57.9 °F 100% 30.16 in 0.2 mi West 4.6 mph - N/A Fog Fog
7:21 AM 60.8 °F - 60.8 °F 100% 30.17 in 0.8 mi Calm Calm - N/A   Mist
7:28 AM 62.6 °F - 60.8 °F 94% 30.17 in 1.0 mi Calm Calm - N/A   Clear
7:53 AM 64.0 °F - 64.0 °F 100% 30.17 in 2.5 mi Calm Calm - N/A   Clear
8:02 AM 64.4 °F - 64.4 °F 100% 30.17 in 4.0 mi Calm Calm - N/A   Clear
8:53 AM 73.0 °F - 66.9 °F 81% 30.17 in 6.0 mi Calm Calm - N/A   Haze
9:53 AM 79.0 °F - 66.9 °F 66% 30.18 in 10.0 mi Calm Calm - N/A   Clear
10:53 AM 81.0 °F 83.0 °F 66.0 °F 60% 30.17 in 10.0 mi ESE 6.9 mph - N/A   Clear
11:53 AM 82.9 °F 84.6 °F 64.9 °F 54% 30.16 in 10.0 mi Calm Calm - N/A   Clear
12:53 PM 84.0 °F 85.8 °F 64.9 °F 53% 30.14 in 10.0 mi Variable 4.6 mph - N/A   Clear
1:53 PM 84.9 °F 87.1 °F 66.0 °F 53% 30.12 in 10.0 mi ESE 4.6 mph - N/A   Clear
2:53 PM 87.1 °F 87.8 °F 63.0 °F 44% 30.09 in 10.0 mi SSE 5.8 mph - N/A   Clear
3:53 PM 86.0 °F 87.3 °F 64.0 °F 48% 30.07 in 10.0 mi Variable 3.5 mph - N/A   Clear
4:53 PM 84.9 °F 87.6 °F 66.9 °F 55% 30.06 in 10.0 mi SE 8.1 mph - N/A   Clear
5:53 PM 82.9 °F 85.0 °F 66.0 °F 56% 30.06 in 10.0 mi East 6.9 mph - N/A   Clear
6:53 PM 78.1 °F - 68.0 °F 71% 30.06 in 10.0 mi ESE 5.8 mph - N/A   Clear
7:53 PM 73.9 °F - 66.9 °F 79% 30.05 in 10.0 mi SE 4.6 mph - N/A   Clear
8:53 PM 70.0 °F - 66.0 °F 87% 30.06 in 10.0 mi Calm Calm - N/A   Clear
9:53 PM 69.1 °F - 66.0 °F 90% 30.05 in 10.0 mi Calm Calm - N/A   Clear
10:53 PM 64.9 °F - 63.0 °F 93% 30.05 in 9.0 mi Calm Calm - N/A   Clear
11:53 PM 64.0 °F - 62.1 °F 93% 30.06 in 9.0 mi Calm Calm - N/A   Clear